AAL78B KMIA-TFFR

Flight info

Callsign AAL78B
Flight time N/A
Altitude 37000
Route KLADA2 BITAC Y290 HAGIT Y421 MEEGL DCT MODUX/N0370F230 R888 GORET GORET2A
Aircraft B38M/M-SDE1FGHILORVWXY/HB1

Departure

Time N/A
Airport Miami International Airport (KMIA)

Arrival

Time 2026-04-30 19:39
Airport Maryse Condé International Airport (TFFR)
Time Latitude Longitude Altitude Speed Heading
2026-04-30 17:39 22.71466 -73.26503 37010 ft 480 kts 120°
2026-04-30 17:42 22.39549 -72.62808 36995 ft 483 kts 121°
2026-04-30 17:43 22.23370 -72.30842 36999 ft 487 kts 121°
2026-04-30 17:44 22.03792 -71.92461 36995 ft 488 kts 121°
2026-04-30 17:47 21.74235 -71.34833 36987 ft 489 kts 122°
2026-04-30 17:48 21.48880 -70.92224 37005 ft 487 kts 122°
2026-04-30 17:49 21.37823 -70.78480 36971 ft 481 kts 135°
2026-04-30 17:50 21.29047 -70.67575 36986 ft 483 kts 136°
2026-04-30 17:52 21.15823 -70.51292 36979 ft 483 kts 136°
2026-04-30 17:54 20.95947 -70.26903 36980 ft 484 kts 137°
2026-04-30 17:56 20.81636 -70.09409 36981 ft 485 kts 137°
2026-04-30 17:58 20.74962 -70.01269 36979 ft 485 kts 138°
2026-04-30 18:00 20.66057 -69.90429 36985 ft 487 kts 138°
2026-04-30 18:01 20.60480 -69.83649 36982 ft 482 kts 137°
2026-04-30 18:02 20.53854 -69.75606 36984 ft 482 kts 138°
2026-04-30 18:04 20.47579 -69.67999 36969 ft 482 kts 138°
2026-04-30 18:06 20.38722 -69.57280 36978 ft 482 kts 138°
2026-04-30 18:08 20.30951 -69.47891 36979 ft 483 kts 138°
2026-04-30 18:10 20.22078 -69.37190 36989 ft 482 kts 138°
2026-04-30 18:11 20.14305 -69.27831 36967 ft 482 kts 138°
2026-04-30 18:13 20.08753 -69.21157 36975 ft 483 kts 138°
2026-04-30 18:14 20.03192 -69.14479 36971 ft 482 kts 138°
2026-04-30 18:15 19.96522 -69.06478 36945 ft 483 kts 139°
2026-04-30 18:16 19.92063 -69.01135 36944 ft 483 kts 139°
2026-04-30 18:17 19.89829 -68.98460 36942 ft 483 kts 139°
2026-04-30 18:18 19.86533 -68.94427 36941 ft 486 kts 135°
2026-04-30 18:18 19.84416 -68.91617 36948 ft 487 kts 136°
2026-04-30 18:19 19.82288 -68.88821 36945 ft 485 kts 136°
2026-04-30 18:19 19.80160 -68.86040 36943 ft 485 kts 136°
2026-04-30 18:20 19.78028 -68.83259 36943 ft 485 kts 136°
2026-04-30 18:20 19.75897 -68.80480 36946 ft 485 kts 136°
2026-04-30 18:21 19.73764 -68.77699 36950 ft 485 kts 136°
2026-04-30 18:21 19.71631 -68.74920 36945 ft 486 kts 136°
2026-04-30 18:22 19.69006 -68.71502 36944 ft 485 kts 136°
2026-04-30 18:22 19.62601 -68.63170 36943 ft 485 kts 136°
2026-04-30 18:23 19.58328 -68.57617 36953 ft 485 kts 136°
2026-04-30 18:23 19.54055 -68.52070 36952 ft 485 kts 136°
2026-04-30 18:24 19.47672 -68.43794 36955 ft 485 kts 136°
2026-04-30 18:25 19.43393 -68.38252 36953 ft 485 kts 136°
2026-04-30 18:25 19.36977 -68.29951 36972 ft 485 kts 136°
2026-04-30 18:26 19.30557 -68.21657 36969 ft 485 kts 136°
2026-04-30 18:27 19.24128 -68.13364 36972 ft 485 kts 136°
2026-04-30 18:28 19.17704 -68.05086 36968 ft 486 kts 136°
2026-04-30 18:28 19.11297 -67.96844 36972 ft 486 kts 136°
2026-04-30 18:29 19.02692 -67.85789 36969 ft 486 kts 136°
2026-04-30 18:30 18.85596 -67.63904 36973 ft 487 kts 136°
2026-04-30 18:31 18.72606 -67.47399 36979 ft 487 kts 136°
2026-04-30 18:32 18.59694 -67.30828 36989 ft 488 kts 136°
2026-04-30 18:33 18.54792 -67.24607 36989 ft 487 kts 137°
2026-04-30 18:33 18.51543 -67.20484 36989 ft 487 kts 137°
2026-04-30 18:34 18.48631 -67.16065 36977 ft 500 kts 119°
2026-04-30 18:35 18.47357 -67.12635 36993 ft 504 kts 116°
2026-04-30 18:35 18.42958 -67.00376 36988 ft 507 kts 115°
2026-04-30 18:36 18.35563 -66.79528 36985 ft 505 kts 116°
2026-04-30 18:37 18.28153 -66.58703 36961 ft 507 kts 115°
2026-04-30 18:37 18.23191 -66.44811 36955 ft 508 kts 115°
2026-04-30 18:38 18.18232 -66.31011 36952 ft 507 kts 116°
2026-04-30 18:38 18.13256 -66.17116 36952 ft 507 kts 116°
2026-04-30 18:39 18.08225 -66.03218 36959 ft 508 kts 116°
2026-04-30 18:39 18.03227 -65.89325 36965 ft 508 kts 115°
2026-04-30 18:40 17.98201 -65.75443 36965 ft 508 kts 116°
2026-04-30 18:40 17.93158 -65.61575 36970 ft 507 kts 116°
2026-04-30 18:41 17.88131 -65.47732 36966 ft 507 kts 115°
2026-04-30 18:41 17.83094 -65.33914 36964 ft 506 kts 115°
2026-04-30 18:42 17.78055 -65.20127 36961 ft 505 kts 115°
2026-04-30 18:42 17.70505 -64.99548 36963 ft 506 kts 116°
2026-04-30 18:45 17.42485 -64.23694 36962 ft 508 kts 115°
2026-04-30 18:46 17.37348 -64.10012 36962 ft 508 kts 115°
2026-04-30 18:46 17.32197 -63.96269 36961 ft 506 kts 115°
2026-04-30 18:47 17.30553 -63.91828 36965 ft 508 kts 115°
2026-04-30 18:47 17.29261 -63.88390 36964 ft 508 kts 115°
2026-04-30 18:48 17.27971 -63.84951 36962 ft 507 kts 115°
2026-04-30 18:48 17.26684 -63.81519 36947 ft 504 kts 115°
2026-04-30 18:48 17.26046 -63.79818 36805 ft 500 kts 115°
2026-04-30 18:49 17.25413 -63.78128 36534 ft 498 kts 115°
2026-04-30 18:49 17.24778 -63.76440 36199 ft 499 kts 115°
2026-04-30 18:49 17.24143 -63.74750 35860 ft 499 kts 115°
2026-04-30 18:49 17.23509 -63.73062 35559 ft 499 kts 115°
2026-04-30 18:50 17.22873 -63.71369 35298 ft 498 kts 115°
2026-04-30 18:50 17.22249 -63.69709 35070 ft 496 kts 114°
2026-04-30 18:50 17.21619 -63.68033 34843 ft 494 kts 114°
2026-04-30 18:50 17.20992 -63.66366 34603 ft 493 kts 114°
2026-04-30 18:51 17.20364 -63.64698 34351 ft 491 kts 114°
2026-04-30 18:51 17.19740 -63.63039 34096 ft 490 kts 114°
2026-04-30 18:51 17.19116 -63.61380 33837 ft 489 kts 114°
2026-04-30 18:51 17.18495 -63.59729 33585 ft 487 kts 114°
2026-04-30 18:52 17.18083 -63.58637 33422 ft 486 kts 114°
2026-04-30 18:52 17.17462 -63.56990 33176 ft 485 kts 114°
2026-04-30 18:52 17.16845 -63.55351 32931 ft 483 kts 114°
2026-04-30 18:52 17.16229 -63.53716 32682 ft 482 kts 114°
2026-04-30 18:53 17.15416 -63.51560 32350 ft 480 kts 114°
2026-04-30 18:53 17.15002 -63.50462 32195 ft 479 kts 114°
2026-04-30 18:53 17.14398 -63.48861 31951 ft 478 kts 114°
2026-04-30 18:53 17.13781 -63.47226 31703 ft 476 kts 114°
2026-04-30 18:54 17.13181 -63.45635 31470 ft 475 kts 114°
2026-04-30 18:54 17.12576 -63.44031 31232 ft 473 kts 114°
2026-04-30 18:54 17.11972 -63.42433 30991 ft 472 kts 114°
2026-04-30 18:54 17.11371 -63.40841 30756 ft 470 kts 114°
2026-04-30 18:55 17.10771 -63.39254 30515 ft 469 kts 114°
2026-04-30 18:55 17.09578 -63.36097 30060 ft 465 kts 114°
2026-04-30 18:55 17.08986 -63.34530 29829 ft 463 kts 114°
2026-04-30 18:56 17.07808 -63.31414 29375 ft 459 kts 114°
2026-04-30 18:56 17.07222 -63.29866 29157 ft 456 kts 114°
2026-04-30 18:56 17.06647 -63.28346 28938 ft 454 kts 114°
2026-04-30 18:57 17.05474 -63.25249 28461 ft 465 kts 114°
2026-04-30 18:57 17.04875 -63.23666 28218 ft 471 kts 114°
2026-04-30 18:57 17.04270 -63.22069 28000 ft 473 kts 114°
2026-04-30 18:58 17.03056 -63.18865 27576 ft 475 kts 114°
2026-04-30 18:58 17.02448 -63.17261 27355 ft 474 kts 114°
2026-04-30 18:58 17.01841 -63.15658 27139 ft 473 kts 114°
2026-04-30 18:59 17.00638 -63.12487 26701 ft 469 kts 115°
2026-04-30 19:00 16.98844 -63.07760 26045 ft 463 kts 115°
2026-04-30 19:00 16.98254 -63.06207 25838 ft 460 kts 115°
2026-04-30 19:00 16.97074 -63.03104 25414 ft 457 kts 115°
2026-04-30 19:01 16.95886 -63.00046 24952 ft 452 kts 119°
2026-04-30 19:01 16.95186 -62.98583 24669 ft 447 kts 121°
2026-04-30 19:02 16.93781 -62.95706 24222 ft 443 kts 121°
2026-04-30 19:02 16.92415 -62.92861 23766 ft 439 kts 121°
2026-04-30 19:03 16.91065 -62.90018 23303 ft 435 kts 120°
2026-04-30 19:03 16.89730 -62.87198 22846 ft 432 kts 120°
2026-04-30 19:04 16.88404 -62.84396 22402 ft 429 kts 120°
2026-04-30 19:04 16.87088 -62.81612 21935 ft 429 kts 120°
2026-04-30 19:05 16.85749 -62.78783 21430 ft 438 kts 120°
2026-04-30 19:05 16.84393 -62.75917 20988 ft 442 kts 119°
2026-04-30 19:06 16.83031 -62.73040 20531 ft 441 kts 119°
2026-04-30 19:06 16.82362 -62.71627 20307 ft 439 kts 119°
2026-04-30 19:06 16.81012 -62.68778 19838 ft 436 kts 119°
2026-04-30 19:07 16.79672 -62.65949 19373 ft 433 kts 119°
2026-04-30 19:07 16.79006 -62.64544 19144 ft 431 kts 118°
2026-04-30 19:08 16.77680 -62.61749 18686 ft 428 kts 118°
2026-04-30 19:08 16.76365 -62.58978 18226 ft 424 kts 118°
2026-04-30 19:08 16.75712 -62.57601 18002 ft 423 kts 118°
2026-04-30 19:09 16.74411 -62.54861 17554 ft 420 kts 118°
2026-04-30 19:09 16.73765 -62.53501 17328 ft 418 kts 118°
2026-04-30 19:09 16.73121 -62.52145 17105 ft 416 kts 118°
2026-04-30 19:10 16.71841 -62.49450 16657 ft 413 kts 118°
2026-04-30 19:10 16.70578 -62.46795 16216 ft 412 kts 118°
2026-04-30 19:11 16.69941 -62.45456 15987 ft 412 kts 118°
2026-04-30 19:11 16.68661 -62.42764 15533 ft 415 kts 118°
2026-04-30 19:11 16.68020 -62.41416 15325 ft 414 kts 117°
2026-04-30 19:12 16.67380 -62.40072 15093 ft 413 kts 117°
2026-04-30 19:12 16.66741 -62.38729 14865 ft 412 kts 117°
2026-04-30 19:12 16.66106 -62.37395 14646 ft 410 kts 117°
2026-04-30 19:13 16.64844 -62.34744 14204 ft 406 kts 117°
2026-04-30 19:13 16.63592 -62.32115 13760 ft 403 kts 117°
2026-04-30 19:13 16.62969 -62.30808 13542 ft 402 kts 117°
2026-04-30 19:14 16.62348 -62.29507 13326 ft 400 kts 117°
2026-04-30 19:14 16.61729 -62.28208 13104 ft 399 kts 117°
2026-04-30 19:14 16.61114 -62.26918 12888 ft 397 kts 117°
2026-04-30 19:14 16.60509 -62.25648 12666 ft 395 kts 117°
2026-04-30 19:15 16.59898 -62.24369 12455 ft 394 kts 117°
2026-04-30 19:15 16.58684 -62.21822 12023 ft 391 kts 117°
2026-04-30 19:15 16.58080 -62.20557 11791 ft 389 kts 117°
2026-04-30 19:16 16.57479 -62.19298 11572 ft 386 kts 117°
2026-04-30 19:16 16.56877 -62.18051 11352 ft 383 kts 119°
2026-04-30 19:16 16.55263 -62.15874 10913 ft 377 kts 135°
2026-04-30 19:17 16.54340 -62.14911 10741 ft 373 kts 135°
2026-04-30 19:17 16.52554 -62.13004 10377 ft 367 kts 134°
2026-04-30 19:17 16.51670 -62.12059 10180 ft 359 kts 134°
2026-04-30 19:18 16.50249 -62.10539 10018 ft 340 kts 134°
2026-04-30 19:18 16.49174 -62.09391 9811 ft 329 kts 134°
2026-04-30 19:18 16.48382 -62.08545 9601 ft 322 kts 134°
2026-04-30 19:19 16.47607 -62.07717 9438 ft 315 kts 134°
2026-04-30 19:19 16.46847 -62.06905 9251 ft 309 kts 134°
2026-04-30 19:19 16.45379 -62.05336 8950 ft 296 kts 133°
2026-04-30 19:20 16.44668 -62.04576 8803 ft 289 kts 134°
2026-04-30 19:20 16.43972 -62.03834 8654 ft 284 kts 134°
2026-04-30 19:20 16.42618 -62.02388 8362 ft 276 kts 133°
2026-04-30 19:21 16.41959 -62.01685 8226 ft 274 kts 133°
2026-04-30 19:21 16.40624 -62.00260 7930 ft 272 kts 133°
2026-04-30 19:22 16.39311 -61.98859 7685 ft 268 kts 133°
2026-04-30 19:22 16.37415 -61.96837 7491 ft 255 kts 134°
2026-04-30 19:23 16.35597 -61.94898 7290 ft 243 kts 133°
2026-04-30 19:24 16.34451 -61.93648 7131 ft 236 kts 128°
2026-04-30 19:24 16.34024 -61.92925 6973 ft 234 kts 112°
2026-04-30 19:24 16.33608 -61.91293 6698 ft 233 kts 102°
2026-04-30 19:25 16.33125 -61.88827 6287 ft 231 kts 102°
2026-04-30 19:26 16.32813 -61.87191 5997 ft 230 kts 102°
2026-04-30 19:26 16.32505 -61.85566 5728 ft 227 kts 102°
2026-04-30 19:26 16.32354 -61.84762 5599 ft 226 kts 102°
2026-04-30 19:27 16.32057 -61.83167 5335 ft 222 kts 102°
2026-04-30 19:27 16.31766 -61.81598 5073 ft 219 kts 101°
2026-04-30 19:28 16.31622 -61.80821 4951 ft 217 kts 102°
2026-04-30 19:28 16.31344 -61.79314 4815 ft 208 kts 102°
2026-04-30 19:29 16.31082 -61.77879 4691 ft 196 kts 102°
2026-04-30 19:29 16.30957 -61.77189 4565 ft 193 kts 102°
2026-04-30 19:30 16.30582 -61.75163 4162 ft 188 kts 102°
2026-04-30 19:30 16.30339 -61.73843 3891 ft 185 kts 102°
2026-04-30 19:31 16.30100 -61.72543 3639 ft 182 kts 102°
2026-04-30 19:31 16.29979 -61.71895 3526 ft 182 kts 102°
2026-04-30 19:31 16.29738 -61.70601 3269 ft 182 kts 101°
2026-04-30 19:32 16.29620 -61.69957 3142 ft 180 kts 102°
2026-04-30 19:32 16.29503 -61.69319 3021 ft 179 kts 102°
2026-04-30 19:32 16.29386 -61.68680 2895 ft 179 kts 102°
2026-04-30 19:32 16.29268 -61.68043 2772 ft 180 kts 102°
2026-04-30 19:33 16.29151 -61.67412 2646 ft 180 kts 102°
2026-04-30 19:33 16.29034 -61.66777 2507 ft 178 kts 102°
2026-04-30 19:33 16.28917 -61.66141 2359 ft 178 kts 102°
2026-04-30 19:33 16.28803 -61.65512 2238 ft 176 kts 102°
2026-04-30 19:34 16.28686 -61.64884 2128 ft 177 kts 102°
2026-04-30 19:34 16.28571 -61.64254 2009 ft 178 kts 102°
2026-04-30 19:34 16.28340 -61.62999 1764 ft 173 kts 102°
2026-04-30 19:35 16.28230 -61.62404 1682 ft 162 kts 102°
2026-04-30 19:35 16.28128 -61.61847 1584 ft 151 kts 102°
2026-04-30 19:35 16.28030 -61.61324 1472 ft 145 kts 102°
2026-04-30 19:35 16.27938 -61.60810 1368 ft 144 kts 102°
2026-04-30 19:36 16.27842 -61.60294 1243 ft 147 kts 103°
2026-04-30 19:36 16.27736 -61.59770 1106 ft 148 kts 103°
2026-04-30 19:36 16.27528 -61.58719 880 ft 147 kts 103°
2026-04-30 19:37 16.27433 -61.58204 806 ft 144 kts 102°
2026-04-30 19:37 16.27342 -61.57688 731 ft 146 kts 101°
2026-04-30 19:37 16.27258 -61.57163 638 ft 148 kts 101°
2026-04-30 19:37 16.27167 -61.56641 521 ft 146 kts 102°
2026-04-30 19:38 16.27071 -61.56125 408 ft 143 kts 103°
2026-04-30 19:38 16.26974 -61.55621 297 ft 142 kts 102°
2026-04-30 19:38 16.26885 -61.55116 183 ft 141 kts 100°
2026-04-30 19:38 16.26801 -61.54614 96 ft 140 kts 102°
2026-04-30 19:39 16.26710 -61.54121 29 ft 134 kts 102°
2026-04-30 19:39 16.26648 -61.53801 25 ft 121 kts 102°
2026-04-30 19:39 16.26514 -61.53103 29 ft 64 kts 101°
2026-04-30 19:39 16.26423 -61.52622 32 ft 22 kts 106°
2026-04-30 19:40 16.26362 -61.52577 33 ft 12 kts 194°